Ft. Stewart, GA

12:54 PM EST on December 17, 2017 (GMT -0500)
Wright Army Air Field

Weather History for KLHW - February, 2013

Change the Weather History Date:

Wednesday, February 27, 2013

  Actual Average Record
Temperature  
Mean Temperature 52 °F -  
Max Temperature 57 °F 67 °F 84 °F (1985)
Min Temperature 48 °F 42 °F 22 °F (1974)
Degree Days  
Heating Degree Days 12    
Growing Degree Days 2 (Base 50)    
Moisture  
Dew Point 40 °F    
Average Humidity 63    
Maximum Humidity 77    
Minimum Humidity 48    
Precipitation  
Precipitation 0.00 in - - ()
Sea Level Pressure  
Sea Level Pressure 29.89 in    
Wind  
Wind Speed 9 mph (WSW)    
Max Wind Speed 13 mph    
Max Gust Speed -    
Visibility 10 miles    
Events      
Averages and records for this station are not official NWS values.
T = Trace of Precipitation, MM = Missing Value Source: NWS Daily Summary

Daily Weather History Graph

Daily Weather History Graph

Search for Another Location

Airport or City:

Trip Planner

Search our weather history database for the weather conditions in past years. The results will help you decide how hot, cold, wet, or windy it might be!

Date:

Astronomy

Feb. 27, 2013 Rise Set
Actual Time 6:55 AM EST 6:22 PM EST
Civil Twilight 6:30 AM EST 6:47 PM EST
Nautical Twilight 6:02 AM EST 7:15 PM EST
Astronomical Twilight 5:34 AM EST 7:43 PM EST
Moon 8:30 PM EST (2/27) 7:40 AM EST (2/27)
Length of Visible Light 12h 16m
Length of Day
11h 27m
Waning Gibbous, 96% of the Moon is Illuminated
Feb 27
Waning Gibbous
Mar 4
Last Quarter
Mar 11
New
Mar 19
First Quarter
Mar 27
Full

Hourly Weather History & Observations

Time (EST) Temp. Dew Point Humidity Pressure Visibility Wind Dir Wind Speed Gust Speed Precip Events Conditions
12:58 AM 57.7 °F 47.5 °F 69% 29.80 in 10.0 mi West 11.5 mph - N/A   Clear
1:58 AM 55.6 °F 46.0 °F 70% 29.82 in 10.0 mi West 8.1 mph - N/A   Clear
2:58 AM 53.4 °F 46.4 °F 77% 29.83 in 10.0 mi WSW 6.9 mph - N/A   Clear
3:58 AM 52.9 °F 43.7 °F 71% 29.85 in 10.0 mi WNW 6.9 mph - N/A   Partly Cloudy
4:58 AM 50.4 °F 39.4 °F 66% 29.87 in 10.0 mi West 5.8 mph - N/A   Partly Cloudy
5:58 AM 49.5 °F 38.5 °F 66% 29.89 in 10.0 mi WNW 6.9 mph - N/A   Mostly Cloudy
6:58 AM 48.7 °F 37.8 °F 66% 29.90 in 10.0 mi West 8.1 mph - N/A   Partly Cloudy
7:58 AM 48.6 °F 37.9 °F 67% 29.94 in 10.0 mi West 6.9 mph - N/A   Partly Cloudy
8:58 AM 48.7 °F 36.1 °F 62% 29.95 in 10.0 mi West 10.4 mph - N/A   Partly Cloudy
9:58 AM 50.2 °F 36.5 °F 59% 29.95 in 10.0 mi West 12.7 mph - N/A   Partly Cloudy
10:58 AM 52.0 °F 36.7 °F 56% 29.95 in 10.0 mi WSW 10.4 mph - N/A   Scattered Clouds
11:58 AM 53.8 °F 37.4 °F 54% 29.94 in 10.0 mi WSW 10.4 mph - N/A   Mostly Cloudy
12:58 PM 54.9 °F 37.6 °F 52% 29.92 in 10.0 mi SSW 9.2 mph - N/A   Mostly Cloudy
1:55 PM 55.4 °F 37.4 °F 51% 29.89 in 10.0 mi WSW 10.4 mph - N/A   Mostly Cloudy
2:55 PM 57.2 °F 37.4 °F 48% 29.89 in 10.0 mi West 10.4 mph - N/A   Overcast
3:55 PM 57.2 °F 39.2 °F 51% 29.87 in 10.0 mi WSW 12.7 mph - N/A   Overcast
5:55 PM 55.4 °F 42.8 °F 63% 29.88 in 10.0 mi WSW 6.9 mph - N/A   Mostly Cloudy
6:58 PM 52.5 °F 42.4 °F 69% 29.89 in 10.0 mi WSW 4.6 mph - N/A   Overcast
7:55 PM 50.0 °F 42.8 °F 76% 29.89 in 10.0 mi WSW 5.8 mph - N/A   Partly Cloudy